Погода в Поргере

Папуа-Новая Гвинея     5°28′00″S   143°08′49″E
темп.,
°C
ветер,
м/с
пор.,
м/с
влажн.,
%
обл.,
%
осадки,
мм/ч
давл.,
гПа
погр.,
м
22 января, пт
пт2201:00+9зюз019995 0.0 101224
04:00+9зюз019997 0.0 101123
07:00+9ю1198100 0.0 101225
10:00+17ссз1165100 0.1 1011823
13:00+17сз2378100 1.6 1008970
16:00+15сз1295100 6.6 1007414
19:00+12сз1199100 3.9 100930
22:00+10юз0199100 4.5 101123
23 января, сб
сб2301:00+9з0199100 0.0 101123
04:00+8юз0199100 0.0 101023
07:00+8ююз0198100 0.0 101225
10:00+18ссз1158100 0.0 1012843
13:00+18сз2263100 0.4 10091184
16:00+14сз1296100 3.9 1007317
19:00+12зсз01100100 7.1 100957
22:00+11ю1199100 20.3 101244
24 января, вс
вс2401:00+10ю1198100 2.0 101229
04:00+9ю0198100 2.1 101022
07:00+9ююз119897 0.0 101226
10:00+17ссз117097 0.1 1011767
13:00+18зсз2273100 1.8 1008943
16:00+15ссз1295100 5.3 1006446
19:00+11ссз0099100 2.0 100923
22:00+10юз0199100 2.1 101123
25 января, пн
пн2501:00+10сз019993 0.0 101130
04:00+10ссз019897 0.1 101055
07:00+9зсз0199100 0.0 101127
10:00+17ссз116495 0.0 1011734
13:00+17ссз237396 1.0 10071037
16:00+15ссз229394 4.0 1005583
19:00+11сз1110092 1.9 100837
22:00+9ююз019996 2.0 101035
26 января, вт
вт2601:00+8ю0198100 0.0 101028
04:00+8юз119798 0.0 100827
07:00+8ююз119672 0.0 101025
10:00+19ссз125456 0.0 1009965
13:00+18зсз226656 0.8 10061104
16:00+15сз129375 3.7 1004417
19:00+12зсз019898 2.4 100722
22:00+9ю119894 2.7 100924